This demonstration page uses our WeatherBlox Daily Observations layout. Learn more.

Left ArrowRight Arrow

39.95238, -75.16362

Hourly Observations for January 18, 2022

Temp ( °F °C ) Dew Point ( °F °C ) Humidity (%) Winds ( mph kmh ) Pressure ( in mb ) Visibility ( mi km ) Precip ( " mm )
12:54 am 00:54 Mostly Clear 35 1.7 14 -10 42 42 WNW 18 30 29.62 1003 10 16 0.00 0.00
1:54 am 01:54 Partly Cloudy 34 1.1 15 -9.4 46 46 WNW 16 26 29.67 1005 10 16 0.00 0.00
2:54 am 02:54 Mostly Cloudy 35 1.7 18 -7.8 50 50 WNW 12 19 29.70 1006 10 16 0.00 0.00
3:54 am 03:54 Cloudy 36 2.2 20 -6.7 52 52 WNW 10 17 29.72 1007 10 16 0.00 0.00
4:54 am 04:54 Cloudy 37 2.8 21 -6.1 52 52 W 13 20 29.76 1008 10 16 0.00 0.00
5:54 am 05:54 Cloudy 37 2.8 21 -6.1 52 52 W 14 22 29.80 1009 10 16 0.00 0.00
6:54 am 06:54 Cloudy 36 2.2 19 -7.2 50 50 W 14 22 29.84 1010 10 16 0.00 0.00
7:54 am 07:54 Partly Cloudy 35 1.7 19 -7.2 52 52 W 16 26 29.87 1011 10 16 0.00 0.00
8:54 am 08:54 Partly Cloudy 37 2.8 20 -6.7 50 50 WNW 17 28 29.90 1013 10 16 0.00 0.00
9:54 am 09:54 Mostly Cloudy 39 3.9 20 -6.7 46 46 W 20 31 29.93 1014 10 16 0.00 0.00
10:54 am 10:54 Mostly Cloudy 40 4.4 17 -8.3 40 40 WNW 25 41 29.96 1015 10 16 0.00 0.00
11:54 am 11:54 Mostly Cloudy 40 4.4 18 -7.8 41 41 WNW 20 31 29.98 1015 10 16 0.00 0.00
12:54 pm 12:54 Cloudy 40 4.4 19 -7.2 43 43 WNW 14 22 29.98 1015 10 16 0.00 0.00
1:54 pm 13:54 Mostly Cloudy 40 4.4 18 -7.8 41 41 WNW 20 31 30.01 1016 10 16 0.00 0.00
2:54 pm 14:54 Mostly Cloudy 41 5 18 -7.8 39 39 W 22 35 30.03 1017 10 16 0.00 0.00
3:54 pm 15:54 Mostly Cloudy 39 3.9 18 -7.8 43 43 W 15 24 30.07 1018 10 16 0.00 0.00
4:54 pm 16:54 Partly Cloudy 39 3.9 17 -8.3 41 41 W 16 26 30.09 1019 10 16 0.00 0.00
5:54 pm 17:54 Mostly Clear 38 3.3 17 -8.3 43 43 W 9 15 30.12 1020 10 16 0.00 0.00
6:54 pm 18:54 Mostly Clear 34 1.1 18 -7.8 52 52 W 9 15 30.14 1021 10 16 0.00 0.00
7:54 pm 19:54 Mostly Clear 33 0.6 19 -7.2 56 56 WSW 10 17 30.16 1022 10 16 0.00 0.00
8:54 pm 20:54 Mostly Clear 31 -0.6 18 -7.8 59 59 WSW 8 13 30.18 1022 10 16 0.00 0.00
9:54 pm 21:54 Clear 33 0.6 18 -7.8 54 54 WSW 5 7 30.18 1022 10 16 0.00 0.00
10:54 pm 22:54 Clear 31 -0.6 20 -6.7 64 64 SSW 6 9 30.19 1023 10 16 0.00 0.00
11:54 pm 23:54 Clear 31 -0.6 20 -6.7 64 64 S 7 11 30.19 1022 10 16 0.00 0.00

Powered by AerisWeather